Location: Demmingen
(48.6757°N, 10.4375°E)
Time: 03:13:07
(UTC+00:00)

Cosmos 468 Rocket - Pass Details

Date: 23 May 2024
Orbit: 741 x 777 km, 74.0° (Epoch: 19 June)

Event Time Altitude Azimuth Distance (km) Brightness Sun altitude
Rises 00:40:19 0° 332° (NNW) 3,269 7.9 -18.1°
Reaches altitude 10° 00:42:47 10° 327° (NNW) 2,334 7.0 -18.0°
Maximum altitude 00:47:50 47° 255° (WSW) 1,022 4.4 -17.7°
Enters shadow 00:49:52 31° 203° (SSW) 1,323 4.6 -17.5°
